Flag for U.S.A. Weather past 2 weeks in Farmington, New Mexico, U.S.A.

Now
60 °F

Clear.


Feels Like: 60 °F
Forecast: 59 / 92 °F
Wind: 8 mph from Northeast

Location: Four Corners Regional Airport

Current Time: Aug 5, 2015 at 6:42:10 AM

Latest Report: Aug 5, 2015 at 5:53 AM


Visibility: 10 mi

Pressure: 30.01 "Hg (24.78 "Hg at 1617m altitude)

Humidity: 53%

Dew point: 43 °F

Location of FarmingtonLocation

Historic Weather in Farmington — Graph

°F

Farmington temperature yesterday

Maximum temperature yesterday: 91 °F (at 2:53 PM)
Minimum temperature yesterday: 61 °F (at 1:53 AM)
Average temperature yesterday: 76 °F

Past Weeks' High & Low Weather Summary

 TemperatureHumidityPressure
High92 °F (Jul 25, 3:53 PM)97% (Aug 3, 4:53 AM)30.29 "Hg (Aug 3, 4:53 AM)
Low54 °F (Jul 28, 4:53 AM)7% (Jul 28, 7:53 PM)29.75 "Hg (Jul 27, 6:53 PM)
Average74 °F43%29.99 "Hg
* Reported Jul 21 4:53 AM — Aug 5 4:53 AM, Farmington, Weather by CustomWeather, © 2015

Note: Actual official high and low records may vary slightly from our data, if they occured in-between our weather recording intervals... More about our weather records

Advertising

Farmington weather history for previous 24 hours

 ConditionsComfort  
Time TempWeatherWind HumidityBarometerVisibility
4:53 AM
Wed, Aug 5
61 °FClear.7 mph54%30.00 "Hg10 mi
3:53 AM61 °FClear.7 mph54%29.99 "Hg10 mi
2:53 AM62 °FClear.6 mph52%29.97 "Hg10 mi
1:53 AM65 °FClear.7 mph45%29.96 "Hg10 mi
12:53 AM66 °FClear.8 mph42%29.97 "Hg10 mi
11:53 PM
Tue, Aug 4
68 °FClear.5 mph39%29.97 "Hg10 mi
10:53 PM70 °FClear.8 mph37%29.96 "Hg10 mi
9:53 PM76 °FClear.9 mph26%29.95 "Hg10 mi
8:53 PM78 °FSunny.6 mph21%29.94 "Hg10 mi
7:53 PM85 °FSunny.8 mph19%29.92 "Hg10 mi
6:53 PM89 °FSunny.9 mph16%29.91 "Hg10 mi
5:53 PM90 °FScattered clouds.10 mph16%29.91 "Hg10 mi
4:53 PM91 °FSunny.17 mph15%29.93 "Hg10 mi
3:53 PM91 °FSunny.12 mph16%29.92 "Hg10 mi
2:53 PM91 °FPassing clouds.8 mph17%29.94 "Hg10 mi
1:53 PM88 °FSunny.6 mph21%29.97 "Hg10 mi
12:53 PM86 °FSunny.8 mph26%29.99 "Hg10 mi
11:53 AM83 °FSunny.7 mph30%30.00 "Hg10 mi
10:53 AM79 °FSunny.6 mph32%30.01 "Hg10 mi
9:53 AM73 °FSunny.7 mph38%30.03 "Hg10 mi
8:53 AM69 °FSunny.6 mph45%30.04 "Hg10 mi
7:53 AM65 °FSunny.5 mph51%30.03 "Hg10 mi
6:53 AM63 °FPassing clouds.6 mph54%30.01 "Hg10 mi
Weather by CustomWeather, © 2015

See weather overviewHow to use our weather pages